STARLINK-33974, 63954

Orbit data source: Space-Track

STARLINK-33974, 63954 is a payload satellite owned by SpaceX/Seattle (US) in LEO that was launched on Tue, 13 May 2025 UTC via an FALCON 9 launch vehicle from the Air Force Eastern Test Range (AFETR). Payload-class satellites include a variety of spacecraft equipped with specific instruments for various scientific and technological missions. These include communications satellites like Starlink; space stations such as the ISS; scientific satellites like the Hubble; Earth observation satellites from companies like Planet Labs, Umbra, and HawkEye 360; GPS; miniature CubeSats for education and research; and military/defense satellites.

Loading next visibility...
Identifier
63954, 2025-099C
Orbit
LEO
Country
Flag of USUS
Related business
Manufacturer
SpaceX/Seattle
Mission
Operational Commercial Communications
Bus & Motor
STARLINK V2MO, Unknown motor
Mass
575 kg wet, ~530 kg dry
Launch date (UTC)
2025-05-13 (7 months ago)
Launch vehicle
FALCON 9
Launch site
Air Force Eastern Test Range (AFETR)
Object type
Payload
Rocket body
Debris
Shape & HBR
Box + 2 Pan, 17.7 m
Radar Cross Section
36.964 m², Large (>1 m²)

Expand to show TLE details & history
Last TLE update: 13 hours ago

TLE from 13 hours ago
0 STARLINK-33974
1 63954U 25099C   25346.93401608  .00044393  00000-0  16122-2 0  9990
2 63954  43.0021 306.5630 0001609 260.9829  99.0841 15.27597050 34069
Epoch: 2025-12-12T22:24Z
TLE epoch observation values (Epoch: 2025-12-12T22:24:58.989Z)
Latitude
0.00002°
Longitude
-111.55129°
Altitude
482.948 km
Speed
7.626 km/s
True Right ascension
20h 26m 15s
True Declination
0° 00' 00"
Sunlit
Object was in daylight at epoch
Visualization orbit readout
Latitude
Unknown
Longitude
Unknown
Altitude
Unknown
Speed
Unknown
Apparent Right ascension
Unknown
Apparent Declination
Unknown
Sunlit
N/A
Visualization observer readout
Local Sidereal Time
09:41:27
Azimuth
Unknown
Elevation
Unknown
Doppler factor
Unknown
Orbital elements
Apogee altitude
486.047 km
Perigee altitude
483.839 km
Semi-major axis
6,863.08 km
Eccentricity
0.00016
Inclination
43.0021°
RAAN
306.563°
Arg. of periapsis
260.9829°
True anomaly
99.10231°
Mean anomaly
99.0841°
Eccentric anomaly
99.0932°
Mean motion
3.81737 °/min
Orbital period
94.31 mins
BSTAR
0.0016122
Loading maneuver chart data...
Computing Atmospheric mass density...
Loading historical data...
Loading historical data...
Loading historical data...
Loading historical data...
Loading historical data...
Loading historical data...
Loading historical data...

Documentation

Showing up to 5 results
|